Weather History for Caldwell, NJ

Change the Weather History Date:

Sunday, April 27, 2014

  Actual Average Record
Temperature  
Mean Temperature 50 °F -  
Max Temperature 55 °F 65 °F 81 °F (1990)
Min Temperature 45 °F 42 °F 30 °F (1963)
Degree Days  
Heating Degree Days 15    
Moisture  
Dew Point 33 °F    
Average Humidity 48    
Maximum Humidity 54    
Minimum Humidity 45    
Precipitation  
Precipitation 0.00 in - - ()
Sea Level Pressure  
Sea Level Pressure 30.02 in    
Wind  
Wind Speed 7 mph (NNW)    
Max Wind Speed 14 mph    
Max Gust Speed 25 mph    
Visibility 10 miles    
Events      
Averages and records for this station are not official NWS values.
T = Trace of Precipitation, MM = Missing Value Source: NWS Daily Summary

Daily Weather History Graph

Daily Weather History Graph

Search for Another Location

Airport:

Trip Planner

Search our weather history database for the weather conditions in past years. The results will help you decide how hot, cold, wet, or windy it might be!

Date:

Astronomy

Apr. 27, 2014 Rise Set
Actual Time 6:00 AM EDT 7:49 PM EDT
Civil Twilight 5:31 AM EDT 8:18 PM EDT
Nautical Twilight 4:55 AM EDT 8:54 PM EDT
Astronomical Twilight 4:17 AM EDT 9:33 PM EDT
Moon 5:00 AM EDT (4/27) 6:19 PM EDT (4/27)
Length of Visible Light 14h 47m
Length of Day
13h 48m
Waning Crescent, 3% of the Moon is Illuminated
Apr 27
Waning Crescent
Apr 29
New
May 6
First Quarter
May 14
Full
May 21
Last Quarter

Hourly Weather History & Observations

Time (EDT) Temp. Windchill Dew Point Humidity Pressure Visibility Wind Dir Wind Speed Gust Speed Precip Events Conditions
12:53 AM 48.9 °F - - N/A% 29.92 in 10.0 mi NNW 9.2 mph - N/A   Clear
1:53 AM 46.9 °F - - N/A% 29.92 in 10.0 mi NW 6.9 mph - N/A   Clear
2:53 AM 46.0 °F 43.1 °F - N/A% 29.92 in 10.0 mi NNW 5.8 mph - N/A   Clear
3:53 AM 45.0 °F 43.5 °F - N/A% 29.92 in 10.0 mi Variable 3.5 mph - N/A   Clear
4:53 AM 45.0 °F 42.6 °F - N/A% 29.93 in 10.0 mi NW 4.6 mph - N/A   Clear
5:53 AM 45.0 °F 43.5 °F - N/A% 29.95 in 10.0 mi NW 3.5 mph - N/A   Clear
6:53 AM 46.0 °F 42.5 °F - N/A% 29.98 in 10.0 mi NNW 6.9 mph 17.3 mph N/A   Clear
7:53 AM 48.0 °F - - N/A% 29.99 in 10.0 mi NNW 9.2 mph - N/A   Clear
8:53 AM 48.9 °F - - N/A% 30.01 in 10.0 mi NNW 9.2 mph - N/A   Clear
9:53 AM 52.0 °F - - N/A% 30.01 in 10.0 mi NNW 13.8 mph 25.3 mph N/A   Scattered Clouds
10:53 AM 52.0 °F - - N/A% 30.02 in 10.0 mi NW 12.7 mph - N/A   Overcast
12:53 PM 53.1 °F - 32.0 °F 45% 30.02 in 10.0 mi NW 8.1 mph 16.1 mph N/A   Overcast
1:53 PM 53.1 °F - 32.0 °F 45% 30.02 in 10.0 mi NNW 12.7 mph 17.3 mph N/A   Overcast
2:53 PM 54.0 °F - 33.8 °F 46% 30.03 in 10.0 mi NW 10.4 mph 18.4 mph N/A   Overcast
5:53 PM 55.0 °F - - N/A% 30.04 in 10.0 mi North 5.8 mph - N/A   Overcast
6:53 PM 54.0 °F - - N/A% 30.06 in 10.0 mi North 8.1 mph - N/A   Mostly Cloudy
7:53 PM 53.1 °F - - N/A% 30.09 in 10.0 mi NNW 4.6 mph - N/A   Mostly Cloudy
8:53 PM 52.0 °F - 33.8 °F 50% 30.12 in 10.0 mi NNW 5.8 mph - N/A   Mostly Cloudy
9:53 PM 51.1 °F - 32.0 °F 48% 30.15 in 10.0 mi NW 4.6 mph - N/A   Overcast
10:53 PM 50.0 °F - 32.0 °F 50% 30.14 in 10.0 mi North 5.8 mph - N/A   Partly Cloudy
11:53 PM 48.0 °F - 32.0 °F 54% 30.16 in 10.0 mi Variable 3.5 mph - N/A   Clear